Theta_e
312 314 317 314 314 313 314 316 318 317 314 316 318 317 318 318 317 316 314 314 313 313 312 313 314 315 314 314 314 314 314 314 312 311 310 308 306 310 311 308 307 306 308 310
313 313 313 313 313 314 314 315 316 315 314 315 317 318 318 316 313 312 312 311 311 312 311 312 313 313 312 313 313 314 313 313 311 311 309 307 308 311 309 308 307 307 310 311
312 311 311 312 313 314 314 315 315 314 314 313 315 324 320 314 312 311 309 310 309 310 309 310 311 311 312 312 313 313 312 311 311 310 308 306 311 312 309 308 307 307 311 312
311 310 310 311 312 313 314 313 313 313 317 324 315 336 322 315 314 310 307 308 309 308 308 308 309 310 311 312 312 312 311 311 310 309 307 308 311 310 310 308 308 308 311 312
311 312 311 312 311 311 313 312 314 315 317 318 318 325 325 313 315 309 306 306 306 307 306 308 309 310 310 311 311 310 310 310 309 307 306 309 311 310 311 309 308 310 311 313
309 307 311 312 310 311 310 313 313 313 316 324 317 319 326 312 306 307 305 304 303 304 305 306 307 309 310 309 309 310 310 309 308 306 306 310 311 309 312 310 309 310 312 313
309 309 309 309 312 311 311 315 322 322 323 324 310 314 318 305 304 303 302 302 301 301 303 304 305 306 307 308 308 309 308 308 306 305 306 310 311 310 311 312 311 310 312 312
307 306 310 310 313 315 313 315 321 324 319 316 310 316 313 304 302 301 300 300 299 299 300 302 303 304 306 306 307 307 307 307 305 304 307 310 311 311 309 311 313 312 312 312
308 309 308 308 308 312 314 315 310 311 306 314 314 312 305 304 303 300 299 299 297 297 298 300 303 304 305 305 306 306 306 306 305 303 306 309 311 312 310 309 311 313 313 312
311 312 307 307 308 308 312 311 314 314 316 314 310 310 312 307 303 300 298 297 296 295 295 297 301 303 304 305 305 306 306 306 306 303 304 307 309 311 312 310 310 311 313 314
312 314 309 308 311 312 311 312 310 313 311 310 310 311 305 303 300 299 297 295 295 294 294 294 297 300 302 303 305 305 305 306 305 304 303 304 306 308 311 311 311 311 313 315
313 314 313 310 306 306 308 311 311 312 311 309 310 311 301 299 297 297 296 294 294 293 293 293 295 297 299 301 302 303 303 304 304 305 304 303 303 305 307 310 311 311 312 314
313 313 318 315 313 309 309 309 309 309 310 311 313 311 300 298 297 295 295 294 293 292 292 293 295 296 296 297 298 300 301 302 303 303 303 303 303 303 305 307 309 310 312 312
310 311 314 317 314 311 310 308 308 310 314 312 311 308 302 300 299 296 294 293 293 292 292 292 294 295 296 297 297 297 298 299 300 301 302 302 302 303 303 304 306 308 310 311
307 312 311 311 310 310 309 309 308 310 311 312 312 309 305 301 298 295 294 293 292 292 291 291 292 294 295 296 296 296 297 297 297 299 300 301 301 301 301 303 304 305 307 308
305 309 308 308 309 308 310 309 309 309 309 310 308 303 299 297 295 295 293 293 292 291 290 289 290 292 294 295 296 296 297 297 297 297 297 297 298 299 300 301 301 302 303 305
304 308 309 311 306 309 311 304 304 303 300 302 310 301 297 297 295 294 292 291 290 290 289 289 289 289 290 291 292 294 296 296 297 298 298 299 298 297 297 298 299 300 301 302
301 303 304 308 303 311 302 297 299 300 297 298 297 297 296 295 292 291 291 290 289 287 286 286 286 286 286 286 287 288 290 292 294 295 296 297 298 298 298 297 296 297 298 299
297 301 302 306 306 302 301 298 299 301 298 295 295 294 294 294 292 291 290 288 287 286 285 285 285 285 285 285 285 285 285 285 286 287 288 290 291 294 296 296 297 297 297 297
298 299 301 302 304 305 299 295 294 295 303 293 293 292 295 294 297 294 288 287 286 286 285 284 284 283 283 283 283 283 284 284 284 284 284 284 284 284 285 288 291 294 296 297
297 298 299 300 303 300 295 293 294 302 299 292 291 291 291 294 291 289 287 286 286 285 284 284 283 283 282 283 283 283 283 283 283 283 284 284 284 284 284 284 284 285 287 292
296 297 297 295 300 301 292 294 298 294 292 291 291 290 289 289 288 287 286 286 285 285 284 283 282 282 282 283 283 283 283 283 283 283 283 283 283 283 283 284 284 284 284 284
294 293 297 296 297 290 291 292 292 291 291 290 289 289 288 288 287 286 286 285 285 284 283 282 282 282 282 282 282 282 282 282 282 283 283 283 283 283 283 283 283 283 284 284
287 285 291 290 288 289 291 292 291 289 288 288 288 288 287 287 286 286 285 285 284 283 282 282 282 282 282 282 282 282 282 282 282 282 282 281 281 282 282 282 281 282 282 282
287 287 288 288 286 288 290 291 290 288 288 288 287 287 287 287 286 286 285 284 283 283 282 281 281 282 282 281 281 280 279 279 280 280 280 280 280 280 280 280 280 280 281 280
285 287 288 289 287 288 289 290 291 289 289 290 290 288 288 287 286 286 285 285 284 283 282 282 282 282 281 281 280 279 278 278 278 279 278 278 278 278 278 278 280 280 279 280
Wind_Speed
4 7 13 12 8 1 3 1 1 2 1 3 4 12 15 20 12 13 15 14 13 11 11 11 8 7 13 17 18 19 18 15 12 10 9 9 9 8 10 8 5 3 5 9
5 13 8 6 7 8 3 2 2 1 2 3 7 17 11 7 10 17 20 19 16 15 13 10 5 4 12 15 16 17 15 12 10 8 8 8 7 7 7 5 2 3 8 8
8 1 13 9 9 10 10 9 4 3 3 1 8 6 3 5 10 17 21 19 18 19 18 13 6 6 12 14 16 15 13 10 7 7 7 7 6 7 4 3 1 6 8 7
4 4 11 11 7 10 9 8 6 3 2 3 4 4 5 3 7 16 24 24 22 21 18 12 7 7 11 15 16 15 11 8 6 6 6 7 5 5 3 1 2 7 9 7
4 6 10 6 6 8 1 4 6 3 3 2 1 3 2 4 4 16 22 23 23 21 18 13 8 8 12 14 14 12 8 5 4 5 5 6 6 5 2 1 3 8 9 7
3 1 1 2 3 7 10 6 5 3 1 3 2 3 0 4 6 9 17 20 21 21 19 14 8 9 14 13 11 8 4 2 4 5 5 4 5 4 1 2 3 8 9 7
1 1 0 3 6 4 2 7 3 3 3 3 2 3 3 4 6 9 12 17 19 20 19 16 12 9 9 8 7 4 1 2 4 5 6 5 5 4 3 3 4 6 8 7
9 5 8 5 2 6 8 3 3 5 4 3 2 5 1 7 7 8 11 13 17 20 19 17 12 9 6 4 3 1 1 2 3 6 7 6 5 5 5 6 5 7 8 8
7 3 2 0 2 3 6 6 2 6 2 1 3 3 6 7 9 13 15 18 20 19 19 18 13 9 6 3 2 2 3 4 5 5 6 7 6 6 6 7 9 9 10 11
2 4 0 1 2 2 4 7 3 1 5 5 3 3 1 6 7 10 15 18 17 17 18 17 15 12 9 6 5 5 6 7 7 5 5 6 8 8 8 8 10 11 11 10
2 0 2 2 7 9 4 4 1 1 1 3 4 3 5 4 5 7 12 14 15 16 17 17 17 15 11 7 6 6 6 6 8 9 8 6 8 9 9 10 10 11 10 10
3 2 4 3 1 1 1 3 6 4 4 1 2 2 3 6 6 7 10 11 13 15 16 17 18 17 15 13 10 9 7 6 7 10 10 8 8 9 10 10 11 12 13 13
7 3 4 2 2 1 4 4 2 3 2 6 4 2 5 7 7 7 9 10 12 15 17 18 19 20 20 19 16 14 13 11 8 7 9 10 10 10 10 10 12 14 15 15
5 2 2 4 3 2 4 4 5 8 4 5 8 6 10 6 6 6 8 9 11 13 15 17 18 20 21 20 19 18 17 16 15 11 8 8 9 11 12 12 13 14 16 17
3 2 2 3 3 3 2 2 2 10 10 7 3 3 11 7 6 6 5 6 9 12 14 15 17 18 18 18 19 19 19 19 18 16 14 12 11 11 12 14 16 16 16 18
3 2 1 2 4 2 2 1 2 0 2 3 4 4 5 8 8 5 5 7 9 10 12 14 16 17 18 19 19 18 19 19 20 20 19 17 15 14 13 14 15 17 18 19
2 1 1 2 3 3 3 1 1 3 4 3 4 4 10 6 7 6 6 7 8 10 12 15 16 17 18 19 19 18 19 20 20 20 20 19 19 19 17 16 16 17 17 19
2 2 2 2 1 3 3 2 1 7 5 6 8 7 5 9 11 9 7 7 6 8 10 11 13 14 16 19 19 19 19 19 20 21 22 22 22 21 21 21 20 18 18 18
5 2 3 2 1 2 3 3 2 2 3 1 5 5 4 12 10 7 5 5 6 8 9 10 11 11 13 15 16 18 19 21 21 22 23 24 25 24 24 25 25 24 22 21
2 3 1 3 3 6 3 3 2 1 3 7 6 5 6 14 3 3 2 4 6 7 7 8 10 10 13 16 17 18 20 21 23 24 25 25 26 26 25 26 28 28 26 24
3 1 3 5 4 2 2 5 5 3 2 10 7 6 5 4 2 3 2 5 6 5 5 7 9 11 14 16 18 20 22 23 25 26 26 27 28 29 28 27 27 27 29 30
5 6 4 3 3 6 8 6 4 5 10 11 7 6 6 5 3 2 4 5 4 4 5 6 9 11 14 17 20 23 25 27 28 29 30 31 32 32 32 32 32 31 30 28
3 2 0 5 0 2 7 3 7 11 12 9 8 7 6 5 4 4 5 5 5 6 7 9 11 14 17 21 25 28 30 32 33 34 35 35 35 36 36 37 37 36 34 33
3 4 2 1 4 7 7 9 13 11 10 10 7 6 5 4 5 6 7 8 8 8 10 11 14 17 19 23 25 29 33 36 38 40 40 39 38 37 36 36 36 38 38 37
1 9 4 4 4 2 12 17 16 14 12 10 7 5 5 6 7 9 11 12 12 12 13 16 19 23 26 29 31 33 34 35 34 34 35 37 38 38 38 35 35 35 35 35
12 7 6 5 10 6 4 21 17 16 16 11 9 9 9 10 11 13 14 15 16 17 18 20 23 26 29 33 35 33 34 34 35 35 35 35 36 36 37 39 41 36 36 34
Wind_Direction
124 191 206 192 199 316 126 209 203 120 51 278 266 290 289 300 346 5 360 348 355 4 345 330 311 251 211 205 205 205 205 207 217 232 266 288 307 319 328 334 340 32 119 127
148 222 195 174 184 217 162 145 270 299 348 310 315 297 297 23 61 50 29 22 12 5 3 358 4 173 179 187 189 193 196 197 209 238 267 291 307 324 330 336 3 119 137 132
171 147 172 163 185 205 225 229 190 247 306 154 303 282 30 74 98 44 31 24 21 12 5 8 34 147 162 167 171 177 181 189 218 258 283 301 312 330 342 347 74 150 149 134
225 131 157 179 183 198 230 218 187 220 226 275 337 290 311 18 120 31 16 17 15 10 16 22 54 126 150 154 160 167 176 191 229 269 296 306 310 321 315 18 150 160 160 154
169 163 150 177 208 184 193 144 141 125 164 297 193 249 229 18 3 5 5 5 10 11 14 27 74 119 137 149 158 165 176 205 265 285 302 306 307 314 305 141 151 168 167 157
85 9 168 107 65 186 141 101 73 78 155 235 149 240 283 11 337 338 356 7 10 12 18 33 69 119 138 147 156 165 181 256 293 296 309 302 299 304 236 153 153 178 181 181
139 135 307 153 106 85 248 167 142 184 193 240 33 222 2 77 21 2 356 8 14 19 29 38 61 92 120 140 154 162 181 315 311 309 311 298 285 289 232 208 186 191 195 200
168 189 187 171 197 191 196 241 216 207 194 154 124 227 133 95 62 38 28 27 29 28 32 46 57 69 88 102 117 102 334 324 312 319 319 309 290 282 247 233 227 218 216 220
170 138 47 350 137 183 171 217 63 108 61 278 188 131 144 136 52 35 31 35 29 31 32 43 53 59 66 63 27 348 333 323 310 324 325 314 295 273 268 248 243 249 243 236
142 122 79 86 152 72 248 150 149 260 173 211 198 248 136 191 24 26 28 28 26 31 35 42 49 50 41 25 354 330 317 313 306 309 317 317 299 279 268 265 258 259 261 255
162 36 106 170 208 179 156 193 112 190 246 190 171 157 10 85 59 44 38 32 28 29 34 38 42 43 41 27 358 331 314 305 298 300 301 310 308 295 279 270 266 260 261 256
159 52 162 186 35 348 6 218 190 197 188 268 335 149 103 100 81 61 52 40 35 37 38 40 41 44 41 36 22 5 348 331 309 299 299 298 296 297 293 279 268 264 258 256
161 180 143 162 219 131 216 191 182 88 89 194 180 154 150 124 89 69 63 48 41 37 37 38 41 41 40 40 33 26 14 6 348 316 295 285 279 278 282 279 268 262 258 253
84 153 264 236 68 75 168 196 205 216 225 231 239 146 188 166 114 76 62 54 45 38 34 33 33 34 37 33 28 28 25 20 12 4 340 309 290 281 276 276 270 262 258 253
69 104 133 74 100 63 73 74 204 223 241 238 166 99 164 153 124 94 65 46 37 29 25 22 20 21 24 25 24 23 23 21 18 15 8 356 335 312 293 280 274 271 268 264
1 103 112 74 59 76 142 49 226 300 347 278 151 111 134 125 118 96 60 44 38 30 22 15 12 11 11 11 10 9 10 11 12 11 10 6 358 346 329 311 294 282 273 269
32 96 66 108 20 143 201 24 330 104 50 342 225 87 153 142 119 98 88 65 42 24 13 8 5 4 6 6 4 4 4 1 359 358 356 357 356 354 349 340 324 306 292 280
80 81 52 120 18 226 80 40 36 106 77 91 98 104 104 125 118 99 70 59 41 18 7 5 8 11 9 7 7 7 3 0 359 357 355 354 349 344 343 344 341 332 320 307
34 62 99 154 192 3 198 195 177 194 139 127 127 118 116 142 131 96 61 39 17 4 4 9 12 14 15 15 16 13 9 9 6 4 2 358 353 347 344 337 334 334 333 328
71 42 74 173 188 218 86 143 131 136 224 167 148 116 107 156 203 113 26 355 350 354 4 12 14 12 12 14 13 10 6 4 4 4 2 360 357 354 350 344 336 330 327 326
111 139 194 186 229 290 134 139 148 183 128 161 153 136 129 181 86 159 314 319 333 347 358 4 3 3 4 3 1 357 353 349 349 347 346 345 344 342 342 341 340 337 332 324
182 160 180 141 206 243 155 129 206 120 131 152 154 157 148 158 183 231 300 307 314 323 336 344 351 352 350 347 344 342 337 335 333 332 330 329 327 327 326 325 325 327 330 329
221 239 195 218 186 149 174 210 165 155 157 169 172 176 179 191 219 282 295 292 296 309 322 329 335 338 337 336 335 332 329 325 324 322 320 318 317 316 316 316 315 316 317 319
216 186 228 265 191 219 194 179 174 171 169 168 173 181 201 224 256 288 291 285 287 291 299 309 316 320 322 323 323 322 319 317 317 317 318 317 316 315 313 312 312 311 311 310
205 161 182 259 231 230 224 202 192 188 190 189 190 211 248 263 278 295 295 290 289 289 297 306 312 316 320 320 320 321 316 315 315 315 316 316 317 317 316 315 314 311 308 307
192 182 185 212 197 183 193 206 206 211 218 225 234 250 273 274 279 290 291 285 282 283 291 298 303 308 311 312 315 316 314 315 317 316 317 316 316 316 316 316 313 311 310 307